{"data":{"norad_id":58945,"epoch":"2026-05-24T21:16:17.468256Z","epoch_age_seconds":81911,"freshness":"FRESH","line1":"1 58945U 24027Q   26144.88631329  .00001504  00000+0  62878-4 0  9997","line2":"2 58945  53.1605 277.2588 0001209  74.0465 286.0669 15.30202833129545","mean_motion":15.30202833,"eccentricity":0.0001209,"inclination_deg":53.1605,"raan_deg":277.2588,"arg_perigee_deg":74.0465,"mean_anomaly_deg":286.0669,"bstar":6.2878e-5,"rev_number":12954,"period_min":94.105171480884,"perigee_km":474.3780413625,"apogee_km":476.03517984755,"semimajor_km":6853.343610605,"source":"CELESTRAK","updated_at":"2026-05-25T13:38:18.791259Z"}}